• In Hungary
  • List of Countries
  • For 7 days
  • Water Temperature
  • Satellite Maps
  • Weather Map
  • News
  • Weather Widgets
  • user-avatar
    Login

    Hourly Weather Pielice

    Today, 20 June, Wednesday

    Time Temperature Precipitation Wind Pressure Humidity
    00:00 +17°C° 0 mm 2 mps 759 mmHg 92%
    01:00 +16°C° 0 mm 2 mps 759 mmHg 94%
    02:00 +16°C° 0 mm 2 mps 759 mmHg 94%
    03:00 +15°C° 0 mm 2 mps 759 mmHg 94%
    04:00 +15°C° 0 mm 1 mps 759 mmHg 95%
    05:00 +16°C° 0 mm 2 mps 759 mmHg 86%
    06:00 +17°C° 0 mm 2 mps 760 mmHg 77%
    07:00 +19°C° 0 mm 2 mps 760 mmHg 68%
    08:00 +20°C° 0 mm 2 mps 760 mmHg 63%
    09:00 +22°C° 0 mm 3 mps 759 mmHg 58%
    10:00 +24°C° 0 mm 3 mps 759 mmHg 53%
    11:00 +25°C° 0 mm 3 mps 759 mmHg 53%
    12:00 +25°C° 0 mm 3 mps 759 mmHg 53%
    13:00 +26°C° 0 mm 3 mps 758 mmHg 54%
    14:00 +26°C° 0 mm 3 mps 758 mmHg 55%
    15:00 +26°C° 0 mm 3 mps 757 mmHg 56%
    16:00 +26°C° 0 mm 3 mps 757 mmHg 57%
    17:00 +26°C° 0 mm 2 mps 757 mmHg 61%
    18:00 +25°C° 0 mm 2 mps 756 mmHg 64%
    19:00 +25°C° 0 mm 1 mps 756 mmHg 67%
    20:00 +24°C° 0 mm 1 mps 756 mmHg 70%
    21:00 +21°C° 0 mm 2 mps 755 mmHg 72%
    22:00 +20°C° 0 mm 2 mps 755 mmHg 75%
    23:00 +20°C° 0 mm 2 mps 755 mmHg 77%

    Tomorrow, 21 June, Thursday

    Time Temperature Precipitation Wind Pressure Humidity
    00:00 +20°C° 0 mm 2 mps 755 mmHg 78%
    01:00 +20°C° 0 mm 2 mps 754 mmHg 80%
    02:00 +19°C° 0 mm 2 mps 754 mmHg 83%
    03:00 +19°C° 0 mm 2 mps 753 mmHg 87%
    04:00 +18°C° 0 mm 2 mps 753 mmHg 90%
    05:00 +20°C° 0.1 mm 3 mps 752 mmHg 84%
    06:00 +21°C° 0.1 mm 3 mps 752 mmHg 78%
    07:00 +23°C° 0.1 mm 4 mps 751 mmHg 72%
    08:00 +25°C° 0.2 mm 4 mps 751 mmHg 67%
    09:00 +26°C° 0.2 mm 5 mps 750 mmHg 62%
    10:00 +27°C° 0.2 mm 6 mps 750 mmHg 57%
    11:00 +27°C° 0.4 mm 6 mps 749 mmHg 57%
    12:00 +27°C° 0.4 mm 6 mps 748 mmHg 56%
    13:00 +27°C° 0.4 mm 6 mps 748 mmHg 56%
    14:00 +24°C° 0.5 mm 6 mps 748 mmHg 64%
    15:00 +21°C° 0.5 mm 6 mps 748 mmHg 72%
    16:00 +19°C° 0.5 mm 6 mps 748 mmHg 80%
    17:00 +16°C° 0.3 mm 7 mps 748 mmHg 78%
    18:00 +15°C° 0.3 mm 7 mps 749 mmHg 75%
    19:00 +14°C° 0.3 mm 7 mps 749 mmHg 73%
    20:00 +12°C° 0 mm 7 mps 750 mmHg 74%
    21:00 +11°C° 0 mm 7 mps 750 mmHg 75%
    22:00 +10°C° 0 mm 6 mps 751 mmHg 76%
    23:00 +9°C° 0 mm 6 mps 751 mmHg 75%

    Day after tomorrow, 22 June, Friday

    Time Temperature Precipitation Wind Pressure Humidity
    00:00 +9°C° 0 mm 6 mps 751 mmHg 73%
    01:00 +9°C° 0 mm 6 mps 752 mmHg 72%
    02:00 +9°C° 0 mm 6 mps 752 mmHg 72%
    03:00 +9°C° 0 mm 6 mps 751 mmHg 72%
    04:00 +9°C° 0 mm 6 mps 751 mmHg 72%
    05:00 +9°C° 0.1 mm 6 mps 751 mmHg 73%
    06:00 +10°C° 0.1 mm 6 mps 751 mmHg 74%
    07:00 +10°C° 0.1 mm 7 mps 751 mmHg 74%
    08:00 +11°C° 0.2 mm 7 mps 752 mmHg 74%
    09:00 +11°C° 0.2 mm 7 mps 752 mmHg 74%
    10:00 +12°C° 0.2 mm 7 mps 752 mmHg 73%
    11:00 +14°C° 0.3 mm 7 mps 752 mmHg 70%
    12:00 +15°C° 0.3 mm 7 mps 752 mmHg 66%
    13:00 +17°C° 0.3 mm 7 mps 752 mmHg 63%
    14:00 +17°C° 0.3 mm 7 mps 752 mmHg 59%
    15:00 +17°C° 0.3 mm 6 mps 752 mmHg 55%
    16:00 +19°C° 0.3 mm 6 mps 753 mmHg 51%
    17:00 +17°C° 0.2 mm 5 mps 753 mmHg 57%
    18:00 +16°C° 0.2 mm 5 mps 753 mmHg 62%
    19:00 +15°C° 0.2 mm 4 mps 753 mmHg 68%
    20:00 +14°C° 0.1 mm 4 mps 753 mmHg 74%
    21:00 +12°C° 0.1 mm 4 mps 753 mmHg 80%
    22:00 +11°C° 0.1 mm 4 mps 753 mmHg 86%
    23:00 +11°C° 0 mm 4 mps 753 mmHg 87%

    23 June, Saturday

    Time Temperature Precipitation Wind Pressure Humidity
    00:00 +10°C° 0 mm 4 mps 753 mmHg 88%
    01:00 +9°C° 0 mm 5 mps 753 mmHg 88%
    02:00 +9°C° 0 mm 5 mps 753 mmHg 87%
    03:00 +9°C° 0 mm 5 mps 753 mmHg 86%
    04:00 +9°C° 0 mm 5 mps 753 mmHg 84%
    05:00 +10°C° 0 mm 5 mps 753 mmHg 79%
    06:00 +11°C° 0 mm 6 mps 753 mmHg 74%
    07:00 +13°C° 0 mm 6 mps 753 mmHg 69%
    08:00 +14°C° 0 mm 6 mps 754 mmHg 65%
    09:00 +15°C° 0 mm 6 mps 754 mmHg 61%
    10:00 +16°C° 0 mm 6 mps 754 mmHg 57%
    11:00 +16°C° 0.1 mm 6 mps 754 mmHg 58%
    12:00 +16°C° 0.1 mm 6 mps 754 mmHg 58%
    13:00 +17°C° 0.1 mm 6 mps 754 mmHg 59%
    14:00 +17°C° 0.2 mm 6 mps 754 mmHg 59%
    15:00 +17°C° 0.2 mm 6 mps 754 mmHg 60%
    16:00 +17°C° 0.2 mm 5 mps 754 mmHg 60%
    17:00 +17°C° 0.2 mm 5 mps 755 mmHg 65%
    18:00 +17°C° 0.2 mm 4 mps 755 mmHg 69%
    19:00 +15°C° 0.2 mm 4 mps 755 mmHg 73%
    20:00 +14°C° 0 mm 4 mps 755 mmHg 78%
    21:00 +13°C° 0 mm 3 mps 755 mmHg 82%
    22:00 +12°C° 0 mm 3 mps 755 mmHg 87%
    23:00 +11°C° 0 mm 3 mps 755 mmHg 89%

    24 June, Sunday

    Time Temperature Precipitation Wind Pressure Humidity
    00:00 +11°C° 0 mm 3 mps 756 mmHg 91%
    01:00 +10°C° 0 mm 3 mps 756 mmHg 92%
    02:00 +10°C° 0 mm 3 mps 756 mmHg 94%
    03:00 +10°C° 0 mm 3 mps 756 mmHg 96%
    04:00 +9°C° 0 mm 3 mps 756 mmHg 97%
    05:00 +11°C° 0 mm 3 mps 756 mmHg 92%
    06:00 +12°C° 0 mm 3 mps 756 mmHg 88%
    07:00 +14°C° 0 mm 3 mps 757 mmHg 83%
    08:00 +17°C° 0.1 mm 3 mps 757 mmHg 74%
    09:00 +19°C° 0.1 mm 4 mps 757 mmHg 65%
    10:00 +20°C° 0.1 mm 4 mps 757 mmHg 56%
    11:00 +21°C° 0.2 mm 4 mps 757 mmHg 54%
    12:00 +21°C° 0.2 mm 4 mps 757 mmHg 53%
    13:00 +22°C° 0.2 mm 4 mps 757 mmHg 52%
    14:00 +21°C° 0.2 mm 3 mps 758 mmHg 55%
    15:00 +21°C° 0.2 mm 3 mps 758 mmHg 58%
    16:00 +20°C° 0.2 mm 3 mps 758 mmHg 61%
    17:00 +20°C° 0.1 mm 2 mps 758 mmHg 65%
    18:00 +19°C° 0.1 mm 2 mps 758 mmHg 68%
    19:00 +18°C° 0.1 mm 2 mps 758 mmHg 72%
    20:00 +17°C° 0 mm 2 mps 758 mmHg 75%
    21:00 +16°C° 0 mm 2 mps 759 mmHg 79%
    22:00 +15°C° 0 mm 2 mps 759 mmHg 82%
    23:00 +14°C° 0 mm 2 mps 759 mmHg 84%

    25 June, Monday

    Time Temperature Precipitation Wind Pressure Humidity
    00:00 +14°C° 0 mm 1 mps 759 mmHg 86%
    01:00 +13°C° 0 mm 1 mps 759 mmHg 88%
    02:00 +13°C° 0 mm 1 mps 759 mmHg 89%
    03:00 +13°C° 0 mm 1 mps 759 mmHg 90%
    04:00 +13°C° 0 mm 1 mps 759 mmHg 91%
    05:00 +14°C° 0 mm 1 mps 760 mmHg 85%
    06:00 +16°C° 0 mm 1 mps 760 mmHg 80%
    07:00 +17°C° 0 mm 2 mps 760 mmHg 75%
    08:00 +19°C° 0 mm 2 mps 760 mmHg 68%
    09:00 +20°C° 0 mm 2 mps 760 mmHg 62%
    10:00 +21°C° 0 mm 2 mps 760 mmHg 55%
    11:00 +23°C° 0 mm 2 mps 760 mmHg 53%
    12:00 +24°C° 0 mm 3 mps 760 mmHg 50%
    13:00 +25°C° 0 mm 3 mps 760 mmHg 47%
    14:00 +25°C° 0 mm 3 mps 760 mmHg 48%
    15:00 +25°C° 0 mm 3 mps 760 mmHg 48%
    16:00 +25°C° 0 mm 2 mps 760 mmHg 48%
    17:00 +24°C° 0 mm 2 mps 761 mmHg 53%
    18:00 +23°C° 0 mm 2 mps 761 mmHg 58%
    19:00 +23°C° 0 mm 1 mps 761 mmHg 62%
    20:00 +21°C° 0 mm 1 mps 761 mmHg 68%
    21:00 +19°C° 0 mm 1 mps 761 mmHg 74%
    22:00 +16°C° 0 mm 1 mps 762 mmHg 80%
    23:00 +16°C° 0 mm 1 mps 762 mmHg 82%
    Show more